Flag for Norway Weather past 2 weeks in Longyearbyen, Svalbard, Norway

Now
1 °F

Clear.


Feels Like: -21 °F
Forecast: -15 / -4 °F
Wind: 22 mph from Southeast

Location: Svalbard Lufthavn

Current Time: Jan 28, 2015 at 3:25:08 AM

Latest Report: Jan 28, 2015 at 2:50 AM


Visibility: 10 mi

Pressure: 29.92 "Hg

Humidity: 55%

Dew point: -11 °F

Location of LongyearbyenLocation

Historic Weather in Longyearbyen — Graph

°F

Longyearbyen temperature yesterday

Maximum temperature yesterday: 7 °F (at 12:50 AM)
Minimum temperature yesterday: 0 °F (at 1:50 PM)
Average temperature yesterday: 3 °F

Past Weeks' High & Low Weather Summary

 TemperatureHumidityPressure
High37 °F (Jan 22, 1:50 AM)93% (Jan 18, 4:50 PM)30.12 "Hg (Jan 18, 4:50 PM)
Low0 °F (Jan 17, 5:00 PM)40% (Jan 15, 6:50 PM)29.53 "Hg (Jan 24, 2:50 AM)
Average19 °F68%29.75 "Hg
* Reported Jan 13 1:50 AM — Jan 28 1:50 AM, Longyearbyen, Weather by CustomWeather, © 2014

Note: Actual official high and low records may vary slightly from our data, if they occured in-between our weather recording intervals... More about our weather records

Advertising

Longyearbyen weather history for previous 24 hours

 ConditionsComfort  
Time TempWeatherWind HumidityBarometerVisibility
1:50 AM
Jan 28
1 °FClear.16 mph55%29.92 "Hg10 mi
12:50 AM1 °FSunny.20 mph55%29.89 "Hg10 mi
11:50 PM
Jan 27
1 °FClear.21 mph50%29.89 "Hg10 mi
10:50 PM1 °FClear.21 mph55%29.89 "Hg10 mi
9:50 PM1 °FClear.24 mph50%29.86 "Hg10 mi
8:50 PM1 °FClear.21 mph50%29.86 "Hg10 mi
7:50 PM1 °FClear.24 mph50%29.89 "Hg10 mi
6:50 PM1 °FSunny.25 mph46%29.86 "Hg10 mi
5:50 PM1 °FSunny.25 mph46%29.89 "Hg10 mi
4:50 PM0 °FSunny.22 mph50%29.86 "Hg10 mi
3:50 PM1 °FSunny.21 mph50%29.89 "Hg10 mi
3:20 PM0 °FSunny.20 mph50%29.86 "Hg10 mi
1:50 PM0 °FPassing clouds.18 mph50%29.86 "HgN/A
12:50 PM1 °FPassing clouds.24 mph46%29.83 "HgN/A
11:50 AM1 °FPassing clouds.21 mph55%29.83 "HgN/A
10:50 AM1 °FLow level haze.29 mph55%29.80 "HgN/A
9:50 AM3 °FPassing clouds.37 mph50%29.77 "HgN/A
8:50 AM5 °FPassing clouds.39 mph51%29.77 "HgN/A
8:20 AM5 °FPassing clouds.44 mph51%29.77 "HgN/A
7:50 AM5 °FLow level haze.40 mph46%29.77 "HgN/A
6:50 AM5 °FLight snow. Passing clouds.36 mph51%29.74 "HgN/A
5:50 AM3 °FLow level haze.39 mph55%29.74 "HgN/A
4:50 AM5 °FLow level haze.41 mph55%29.71 "HgN/A
3:50 AM5 °FLow level haze.44 mph55%29.71 "HgN/A
Weather by CustomWeather, © 2014

See weather overviewHow to use our weather pages